Location: Observatoire
(46.1952°N, 5.3391°E)
Time: 06:47:10
(UTC+01:00)

Altair - Pass Details

Date: 17 February 2026
Orbit: 1502 x 1682 km, 47.2° (Epoch: 5 March)

Event Time Altitude Azimuth Distance (km) Brightness Sun altitude
Rises 12:39:14 0° 292° (WNW) 4,758 9.9 31.8°
Reaches altitude 10° 12:42:48 10° 281° (WNW) 3,799 9.5 31.9°
Maximum altitude 12:50:36 29° 227° (SW) 2,661 9.7 31.9°
Drops below altitude 10° 12:58:37 10° 173° (S) 3,894 11.1 31.9°
Sets 13:02:21 0° 162° (SSE) 4,897 11.1 31.9°
